Change the Weather History Date:

Sunday, January 20, 2013

  Actual Average (KPLN) Record (KPLN)
Temperature  
Mean Temperature 16 °F -  
Max Temperature 25 °F 26 °F 39 °F (1993)
Min Temperature 7 °F 4 °F -23 °F (1970)
Degree Days  
Heating Degree Days 48    
Moisture  
Dew Point 6 °F    
Average Humidity 73    
Maximum Humidity 88    
Minimum Humidity 63    
Precipitation  
Precipitation 0.00 in - - ()
Sea Level Pressure  
Sea Level Pressure 29.92 in    
Wind  
Wind Speed 18 mph (WNW)    
Max Wind Speed 29 mph    
Max Gust Speed 36 mph    
Visibility 7 miles    
Events Snow    
Averages and records for this station are not official NWS values.
T = Trace of Precipitation, MM = Missing Value Source: NWS Daily Summary

Daily Weather History Graph

Daily Weather History Graph

Search for Another Location

Airport or City:

Trip Planner

Search our weather history database for the weather conditions in past years. The results will help you decide how hot, cold, wet, or windy it might be!

Date:

Astronomy

Jan. 20, 2013 Rise Set
Actual Time 8:11 AM EST 5:27 PM EST
Civil Twilight 7:38 AM EST 6:00 PM EST
Nautical Twilight 7:02 AM EST 6:36 PM EST
Astronomical Twilight 6:26 AM EST 7:12 PM EST
Moon 12:29 PM EST (1/20) 2:41 AM EST (1/20)
Length of Visible Light 10h 21m
Length of Day
9h 16m
Waxing Gibbous, 66% of the Moon is Illuminated
Jan 20
Waxing Gibbous
Jan 26
Full
Feb 3
Last Quarter
Feb 10
New
Feb 17
First Quarter

Hourly Weather History & Observations

Time (EST) Temp. Windchill Dew Point Humidity Pressure Visibility Wind Dir Wind Speed Gust Speed Precip Events Conditions
12:15 AM 25.3 °F 10.3 °F 19.9 °F 80% 29.39 in 10.0 mi WNW 23.0 mph 31.1 mph N/A   Mostly Cloudy
12:35 AM 24.8 °F 8.1 °F 19.6 °F 81% 29.40 in 10.0 mi WNW 28.8 mph - N/A   Overcast
12:55 AM 23.9 °F 8.1 °F 19.4 °F 83% 29.40 in 10.0 mi West 24.2 mph 32.2 mph N/A   Overcast
1:15 AM 23.5 °F 8.7 °F 19.2 °F 84% 29.41 in 10.0 mi West 20.7 mph 31.1 mph N/A   Overcast
1:35 AM 23.7 °F 9.7 °F 19.6 °F 84% 29.42 in 10.0 mi West 18.4 mph 35.7 mph N/A   Overcast
1:55 AM 24.4 °F 10.2 °F 20.8 °F 86% 29.44 in 7.0 mi West 19.6 mph 32.2 mph N/A Snow Light Snow
3:55 AM 17.4 °F 2.4 °F 11.8 °F 79% 29.61 in 5.0 mi West 16.1 mph 28.8 mph N/A Snow Light Snow
4:15 AM 16.7 °F -2.2 °F 12.6 °F 84% 29.63 in 1.5 mi West 26.5 mph 33.4 mph N/A Snow Light Snow
4:35 AM 15.8 °F -1.5 °F 12.9 °F 88% 29.66 in 0.5 mi WNW 20.7 mph 29.9 mph N/A Snow Snow
4:55 AM 15.1 °F -4.4 °F 10.0 °F 80% 29.68 in 1.5 mi NW 26.5 mph 34.5 mph N/A Snow Light Snow
5:15 AM 13.8 °F -5.7 °F 6.8 °F 74% 29.72 in 7.0 mi NW 25.3 mph 33.4 mph N/A   Overcast
5:35 AM 12.7 °F -6.0 °F 5.7 °F 74% 29.74 in 7.0 mi NW 21.9 mph 33.4 mph N/A   Mostly Cloudy
5:56 AM 12.2 °F -6.3 °F 5.0 °F 73% 29.77 in 7.0 mi NW 20.7 mph 29.9 mph N/A   Overcast
6:15 AM 12.2 °F -7.1 °F 5.5 °F 75% 29.80 in 7.0 mi NW 23.0 mph 31.1 mph N/A   Overcast
6:35 AM 12.2 °F -3.1 °F 5.5 °F 75% 29.82 in 5.0 mi NW 13.8 mph 27.6 mph N/A   Haze
7:15 AM 12.0 °F -5.1 °F 5.4 °F 75% 29.85 in 10.0 mi WNW 17.3 mph 21.9 mph N/A   Mostly Cloudy
7:35 AM 12.2 °F -4.3 °F 5.5 °F 75% 29.86 in 10.0 mi WNW 16.1 mph 26.5 mph N/A   Overcast
8:15 AM 11.3 °F -7.0 °F 4.3 °F 73% 29.90 in 5.0 mi NW 19.6 mph 26.5 mph N/A   Haze
8:35 AM 11.1 °F -6.7 °F 3.0 °F 70% 29.93 in 10.0 mi WNW 18.4 mph 26.5 mph N/A   Mostly Cloudy
8:55 AM 11.3 °F -4.9 °F 2.7 °F 68% 29.94 in 10.0 mi NW 15.0 mph 27.6 mph N/A   Mostly Cloudy
9:15 AM 11.3 °F -7.0 °F 3.0 °F 69% 29.97 in 10.0 mi NW 19.6 mph 24.2 mph N/A   Overcast
9:35 AM 11.3 °F -6.0 °F 3.6 °F 71% 29.98 in 10.0 mi NW 17.3 mph 24.2 mph N/A   Overcast
10:35 AM 12.4 °F -6.4 °F 1.8 °F 63% 30.01 in 10.0 mi WNW 21.9 mph 28.8 mph N/A   Overcast
10:55 AM 13.5 °F -3.7 °F 4.3 °F 67% 30.02 in 10.0 mi NW 18.4 mph 28.8 mph N/A   Overcast
11:16 AM 12.7 °F -4.6 °F 4.1 °F 68% 30.03 in 10.0 mi WNW 18.4 mph 27.6 mph N/A   Mostly Cloudy
11:35 AM 12.7 °F -4.6 °F 3.9 °F 68% 30.03 in 10.0 mi WNW 18.4 mph 24.2 mph N/A   Overcast
11:55 AM 13.1 °F -4.2 °F 4.1 °F 67% 30.03 in 5.0 mi WNW 18.4 mph 27.6 mph N/A   Haze
12:15 PM 12.9 °F -3.4 °F 3.0 °F 65% 30.03 in 10.0 mi NW 16.1 mph 25.3 mph N/A   Mostly Cloudy
12:35 PM 13.1 °F -3.1 °F 3.2 °F 65% 30.02 in 10.0 mi NW 16.1 mph 25.3 mph N/A   Mostly Cloudy
1:15 PM 13.1 °F -2.6 °F 4.5 °F 68% 30.02 in 10.0 mi NW 15.0 mph 19.6 mph N/A   Mostly Cloudy
1:35 PM 13.6 °F -0.7 °F 6.6 °F 74% 30.02 in 5.0 mi NW 12.7 mph 21.9 mph N/A   Haze
1:55 PM 13.6 °F -1.3 °F 6.6 °F 74% 30.02 in 3.0 mi NW 13.8 mph - N/A Snow Light Snow
2:15 PM 14.4 °F -1.0 °F 6.3 °F 70% 30.02 in 10.0 mi West 15.0 mph 19.6 mph N/A   Overcast
2:35 PM 14.5 °F -1.3 °F 6.8 °F 71% 30.03 in 7.0 mi WNW 16.1 mph 24.2 mph N/A   Overcast
2:55 PM 14.0 °F -1.4 °F 8.2 °F 78% 30.04 in 2.0 mi West 15.0 mph 23.0 mph N/A Snow Light Snow
3:35 PM 13.8 °F -2.7 °F 5.9 °F 71% 30.05 in 2.0 mi West 17.3 mph 25.3 mph N/A   Haze
3:55 PM 14.0 °F -3.0 °F 5.5 °F 69% 30.05 in 4.0 mi WNW 18.4 mph 24.2 mph N/A   Haze
4:15 PM 13.6 °F -1.3 °F 5.9 °F 71% 30.06 in 5.0 mi West 13.8 mph 18.4 mph N/A Snow Light Snow
5:15 PM 12.6 °F -0.6 °F 5.0 °F 72% 30.07 in 4.0 mi West 10.4 mph 18.4 mph N/A Snow Light Snow
5:35 PM 12.7 °F 1.4 °F 4.8 °F 71% 30.08 in 7.0 mi WNW 8.1 mph - N/A Snow Light Snow
5:55 PM 12.9 °F 0.7 °F 3.2 °F 65% 30.08 in 10.0 mi West 9.2 mph 20.7 mph N/A   Overcast
6:15 PM 12.2 °F 1.7 °F 6.6 °F 78% 30.08 in 2.0 mi West 6.9 mph - N/A Snow Light Snow
6:35 PM 12.2 °F -1.0 °F 5.7 °F 75% 30.08 in 5.0 mi WNW 10.4 mph - N/A Snow Light Snow
6:55 PM 12.2 °F -0.2 °F 5.0 °F 73% 30.09 in 5.0 mi WNW 9.2 mph - N/A Snow Light Snow
7:16 PM 11.8 °F 1.3 °F 5.9 °F 77% 30.09 in 3.0 mi WNW 6.9 mph 11.5 mph N/A Snow Light Snow
7:35 PM 12.0 °F 1.5 °F 5.0 °F 73% 30.09 in 7.0 mi West 6.9 mph - N/A Snow Light Snow
7:55 PM 11.3 °F -1.3 °F 7.5 °F 85% 30.09 in 1.2 mi West 9.2 mph - N/A Snow Light Snow
8:16 PM 11.3 °F -3.6 °F 4.6 °F 75% 30.09 in 10.0 mi West 12.7 mph - N/A   Overcast
8:35 PM 11.3 °F -0.4 °F 4.5 °F 74% 30.08 in 7.0 mi West 8.1 mph - N/A   Overcast
8:55 PM 11.3 °F -0.4 °F 3.7 °F 72% 30.08 in 7.0 mi West 8.1 mph - N/A   Overcast
9:15 PM 11.3 °F -1.3 °F 2.7 °F 68% 30.08 in 10.0 mi West 9.2 mph - N/A   Overcast
9:35 PM 10.8 °F -1.1 °F 1.9 °F 68% 30.08 in 10.0 mi West 8.1 mph - N/A   Overcast
9:55 PM 11.1 °F -2.4 °F 1.6 °F 66% 30.07 in 10.0 mi West 10.4 mph - N/A   Overcast
10:15 PM 10.8 °F -2.0 °F 1.2 °F 65% 30.07 in 10.0 mi West 9.2 mph - N/A   Overcast
10:35 PM 10.0 °F 0.4 °F 0.5 °F 65% 30.06 in 10.0 mi West 5.8 mph - N/A   Mostly Cloudy
10:55 PM 9.3 °F 1.0 °F 0.1 °F 66% 30.07 in 10.0 mi WSW 4.6 mph - N/A   Mostly Cloudy
11:15 PM 8.6 °F -2.6 °F -0.4 °F 67% 30.05 in 10.0 mi West 6.9 mph - N/A   Mostly Cloudy
11:35 PM 8.4 °F -0.1 °F -0.2 °F 68% 30.05 in 10.0 mi West 4.6 mph - N/A   Mostly Cloudy
11:55 PM 7.5 °F 0.8 °F -0.8 °F 69% 30.04 in 10.0 mi West 3.5 mph - N/A   Mostly Cloudy